Weather History for KASW - February, 2013

Change the Weather History Date:

Saturday, February 23, 2013

  Actual Average Record
Temperature  
Mean Temperature 28 °F -  
Max Temperature 30 °F 40 °F 65 °F (1984)
Min Temperature 26 °F 23 °F -4 °F (1963)
Degree Days  
Heating Degree Days 37    
Moisture  
Dew Point 21 °F    
Average Humidity 74    
Maximum Humidity 86    
Minimum Humidity 64    
Precipitation  
Precipitation 0.00 in - - ()
Sea Level Pressure  
Sea Level Pressure 29.94 in    
Wind  
Wind Speed 10 mph (WSW)    
Max Wind Speed 14 mph    
Max Gust Speed 18 mph    
Visibility 10 miles    
Events Snow    
Averages and records for this station are not official NWS values.
T = Trace of Precipitation, MM = Missing Value Source: NWS Daily Summary

Daily Weather History Graph

Daily Weather History Graph

Search for Another Location

Airport or City:

Trip Planner

Search our weather history database for the weather conditions in past years. The results will help you decide how hot, cold, wet, or windy it might be!

Date:

Astronomy

Feb. 23, 2013 Rise Set
Actual Time 7:26 AM EST 6:27 PM EST
Civil Twilight 6:58 AM EST 6:55 PM EST
Nautical Twilight 6:26 AM EST 7:27 PM EST
Astronomical Twilight 5:54 AM EST 7:59 PM EST
Moon 4:36 PM EST (2/23) 5:49 AM EST (2/23)
Length of Visible Light 11h 56m
Length of Day
11h 00m
Waxing Gibbous, 95% of the Moon is Illuminated
Feb 23
Waxing Gibbous
Feb 25
Full
Mar 4
Last Quarter
Mar 11
New
Mar 19
First Quarter

Hourly Weather History & Observations

Time (EST) Temp. Windchill Dew Point Humidity Pressure Visibility Wind Dir Wind Speed Gust Speed Precip Events Conditions
12:15 AM 30.2 °F 20.2 °F 23.0 °F 75% 29.94 in 10.0 mi WSW 12.7 mph 18.4 mph N/A   Overcast
12:35 AM 30.2 °F 21.9 °F 21.2 °F 69% 29.93 in 10.0 mi WSW 9.2 mph 17.3 mph N/A   Overcast
12:55 AM 30.2 °F 21.9 °F 21.2 °F 69% 29.94 in 10.0 mi SW 9.2 mph - N/A   Overcast
1:15 AM 30.2 °F 21.3 °F 21.2 °F 69% 29.94 in 10.0 mi WSW 10.4 mph - N/A   Overcast
1:35 AM 30.2 °F 22.6 °F 23.0 °F 75% 29.94 in 10.0 mi WSW 8.1 mph - N/A   Overcast
1:55 AM 28.4 °F 19.7 °F 23.0 °F 80% 29.93 in 10.0 mi WSW 9.2 mph - N/A   Overcast
2:15 AM 28.4 °F 20.4 °F 23.0 °F 80% 29.93 in 10.0 mi WSW 8.1 mph 16.1 mph N/A   Overcast
2:35 AM 28.4 °F 17.5 °F 23.0 °F 80% 29.93 in 10.0 mi WSW 13.8 mph 18.4 mph N/A   Overcast
2:55 AM 28.4 °F 19.1 °F 23.0 °F 80% 29.93 in 10.0 mi WSW 10.4 mph - N/A   Overcast
3:15 AM 28.4 °F 19.7 °F 23.0 °F 80% 29.93 in 10.0 mi WSW 9.2 mph 17.3 mph N/A   Overcast
3:35 AM 28.4 °F 19.1 °F 23.0 °F 80% 29.93 in 10.0 mi SW 10.4 mph 16.1 mph N/A   Overcast
3:55 AM 28.4 °F 20.4 °F 23.0 °F 80% 29.93 in 10.0 mi WSW 8.1 mph - N/A   Overcast
4:15 AM 28.4 °F 19.1 °F 23.0 °F 80% 29.92 in 10.0 mi WSW 10.4 mph 16.1 mph N/A Snow Light Snow
4:35 AM 28.4 °F 19.7 °F 23.0 °F 80% 29.92 in 10.0 mi WSW 9.2 mph - N/A   Overcast
5:15 AM 28.4 °F 19.7 °F 23.0 °F 80% 29.93 in 10.0 mi WSW 9.2 mph 16.1 mph N/A   Overcast
5:35 AM 28.4 °F 19.7 °F 23.0 °F 80% 29.93 in 10.0 mi WSW 9.2 mph - N/A   Overcast
5:55 AM 28.4 °F 19.1 °F 23.0 °F 80% 29.93 in 10.0 mi WSW 10.4 mph - N/A   Overcast
6:15 AM 26.6 °F 18.2 °F 23.0 °F 86% 29.94 in 10.0 mi WSW 8.1 mph - N/A   Overcast
6:35 AM 26.6 °F 17.5 °F 21.2 °F 80% 29.94 in 10.0 mi WSW 9.2 mph - N/A   Overcast
6:55 AM 26.6 °F 17.5 °F 21.2 °F 80% 29.94 in 10.0 mi West 9.2 mph - N/A   Overcast
7:15 AM 26.6 °F 16.8 °F 21.2 °F 80% 29.94 in 10.0 mi WSW 10.4 mph - N/A   Overcast
7:35 AM 26.6 °F 17.5 °F 21.2 °F 80% 29.95 in 7.0 mi WSW 9.2 mph - N/A Snow Light Snow
7:55 AM 26.6 °F 16.8 °F 21.2 °F 80% 29.96 in 7.0 mi WSW 10.4 mph - N/A   Overcast
8:15 AM 26.6 °F 17.5 °F 21.2 °F 80% 29.96 in 7.0 mi West 9.2 mph - N/A   Overcast
8:35 AM 26.6 °F 16.8 °F 21.2 °F 80% 29.96 in 10.0 mi West 10.4 mph - N/A   Overcast
9:15 AM 26.6 °F 17.5 °F 19.4 °F 74% 29.95 in 10.0 mi West 9.2 mph 16.1 mph N/A   Overcast
9:35 AM 26.6 °F 16.2 °F 19.4 °F 74% 29.95 in 10.0 mi West 11.5 mph - N/A   Overcast
9:55 AM 26.6 °F 17.5 °F 19.4 °F 74% 29.95 in 10.0 mi West 9.2 mph - N/A   Overcast
10:15 AM 26.6 °F 17.5 °F 19.4 °F 74% 29.95 in 10.0 mi West 9.2 mph - N/A   Overcast
10:35 AM 26.6 °F 16.2 °F 19.4 °F 74% 29.95 in 10.0 mi West 11.5 mph 17.3 mph N/A   Overcast
10:55 AM 26.6 °F 16.2 °F 19.4 °F 74% 29.95 in 10.0 mi West 11.5 mph - N/A   Overcast
11:15 AM 26.6 °F 16.2 °F 21.2 °F 80% 29.95 in 10.0 mi West 11.5 mph - N/A   Overcast
11:35 AM 28.4 °F 18.5 °F 19.4 °F 69% 29.95 in 10.0 mi SW 11.5 mph 17.3 mph N/A   Overcast
11:55 AM 28.4 °F 18.0 °F 19.4 °F 69% 29.95 in 10.0 mi WSW 12.7 mph - N/A   Overcast
12:15 PM 28.4 °F 19.7 °F 19.4 °F 69% 29.96 in 10.0 mi WSW 9.2 mph 17.3 mph N/A   Overcast
12:35 PM 28.4 °F 18.0 °F 19.4 °F 69% 29.95 in 10.0 mi WSW 12.7 mph - N/A   Overcast
1:15 PM 30.2 °F 20.8 °F 19.4 °F 64% 29.93 in 10.0 mi West 11.5 mph - N/A   Overcast
1:35 PM 30.2 °F 21.3 °F 19.4 °F 64% 29.93 in 10.0 mi WSW 10.4 mph - N/A   Overcast
1:55 PM 30.2 °F 21.3 °F 19.4 °F 64% 29.93 in 10.0 mi SW 10.4 mph 17.3 mph N/A   Overcast
2:15 PM 30.2 °F 20.8 °F 19.4 °F 64% 29.92 in 10.0 mi WSW 11.5 mph - N/A   Overcast
2:35 PM 30.2 °F 23.4 °F 19.4 °F 64% 29.91 in 10.0 mi SW 6.9 mph - N/A   Overcast
2:55 PM 30.2 °F 21.3 °F 19.4 °F 64% 29.91 in 10.0 mi SW 10.4 mph - N/A   Overcast
3:15 PM 30.2 °F 22.6 °F 19.4 °F 64% 29.91 in 10.0 mi West 8.1 mph - N/A   Overcast
3:35 PM 30.2 °F 20.8 °F 19.4 °F 64% 29.91 in 10.0 mi WSW 11.5 mph 17.3 mph N/A   Overcast
3:55 PM 30.2 °F 20.8 °F 19.4 °F 64% 29.92 in 10.0 mi West 11.5 mph - N/A   Overcast
4:15 PM 28.4 °F 18.0 °F 19.4 °F 69% 29.93 in 10.0 mi WSW 12.7 mph - N/A   Overcast
4:35 PM 28.4 °F 18.5 °F 19.4 °F 69% 29.93 in 10.0 mi West 11.5 mph - N/A   Overcast
4:55 PM 28.4 °F 18.0 °F 21.2 °F 74% 29.93 in 10.0 mi West 12.7 mph 17.3 mph N/A   Overcast
5:15 PM 28.4 °F 18.5 °F 21.2 °F 74% 29.93 in 10.0 mi WSW 11.5 mph - N/A   Overcast
5:35 PM 28.4 °F 19.1 °F 21.2 °F 74% 29.93 in 10.0 mi West 10.4 mph 17.3 mph N/A   Overcast
6:15 PM 28.4 °F 18.5 °F 19.4 °F 69% 29.93 in 10.0 mi West 11.5 mph - N/A   Overcast
6:35 PM 28.4 °F 18.5 °F 19.4 °F 69% 29.94 in 10.0 mi WSW 11.5 mph - N/A   Overcast
6:55 PM 26.6 °F 17.5 °F 19.4 °F 74% 29.94 in 10.0 mi West 9.2 mph - N/A   Overcast
7:15 PM 26.6 °F 16.2 °F 19.4 °F 74% 29.94 in 10.0 mi WSW 11.5 mph - N/A   Overcast
7:35 PM 26.6 °F 17.5 °F 19.4 °F 74% 29.95 in 10.0 mi WSW 9.2 mph - N/A   Overcast
7:55 PM 26.6 °F 17.5 °F 21.2 °F 80% 29.95 in 10.0 mi WSW 9.2 mph - N/A   Overcast
8:15 PM 26.6 °F 18.2 °F 21.2 °F 80% 29.95 in 10.0 mi WSW 8.1 mph - N/A   Overcast
8:35 PM 26.6 °F 17.5 °F 21.2 °F 80% 29.96 in 10.0 mi West 9.2 mph - N/A   Overcast
8:55 PM 26.6 °F 16.8 °F 19.4 °F 74% 29.96 in 10.0 mi West 10.4 mph - N/A   Overcast
9:15 PM 26.6 °F 18.2 °F 19.4 °F 74% 29.96 in 10.0 mi West 8.1 mph - N/A   Overcast
9:35 PM 26.6 °F 18.2 °F 19.4 °F 74% 29.95 in 10.0 mi West 8.1 mph - N/A   Overcast
9:55 PM 26.6 °F 17.5 °F 19.4 °F 74% 29.95 in 10.0 mi West 9.2 mph - N/A   Overcast
10:15 PM 26.6 °F 18.2 °F 21.2 °F 80% 29.95 in 10.0 mi West 8.1 mph - N/A   Overcast
10:35 PM 26.6 °F 19.1 °F 21.2 °F 80% 29.95 in 10.0 mi West 6.9 mph - N/A   Overcast
10:55 PM 26.6 °F 17.5 °F 19.4 °F 74% 29.95 in 10.0 mi West 9.2 mph - N/A   Overcast
11:15 PM 26.6 °F 16.2 °F 19.4 °F 74% 29.95 in 10.0 mi West 11.5 mph - N/A   Overcast
11:35 PM 26.6 °F 15.7 °F 19.4 °F 74% 29.95 in 10.0 mi West 12.7 mph 16.1 mph N/A   Overcast
11:55 PM 26.6 °F 15.2 °F 19.4 °F 74% 29.95 in 10.0 mi WNW 13.8 mph - N/A   Overcast